TimePDT,TemperatureF,Dew PointF,Humidity,Sea Level PressureIn,VisibilityMPH,Wind Direction,Wind SpeedMPH,Gust SpeedMPH,PrecipitationIn,Events,Conditions,WindDirDegrees,DateUTC
12:56 AM,57.0,44.1,62,29.48,10.0,NW,9.2,-,N/A,,Clear,320,2012-10-13 07:56:00
1:56 AM,55.9,45.0,67,29.48,10.0,NW,6.9,-,N/A,,Clear,320,2012-10-13 08:56:00
2:56 AM,55.0,45.0,69,30.14,10.0,NW,10.4,-,N/A,,Clear,320,2012-10-13 09:56:00
3:56 AM,54.0,45.0,72,29.47,10.0,NW,9.2,-,N/A,,Clear,320,2012-10-13 10:56:00
4:56 AM,53.1,44.1,71,30.16,10.0,NNW,6.9,-,N/A,,Clear,330,2012-10-13 11:56:00
5:56 AM,52.0,44.1,74,30.17,10.0,West,6.9,-,N/A,,Clear,280,2012-10-13 12:56:00
6:56 AM,52.0,44.1,74,30.19,10.0,West,6.9,-,N/A,,Clear,280,2012-10-13 13:56:00
7:56 AM,53.1,44.1,71,30.20,8.0,Calm,Calm,-,N/A,,Clear,0,2012-10-13 14:56:00
8:56 AM,59.0,45.0,60,30.22,10.0,NW,6.9,-,N/A,,Clear,320,2012-10-13 15:56:00
9:56 AM,63.0,45.0,52,30.22,10.0,Variable,3.5,-,N/A,,Clear,0,2012-10-13 16:56:00
10:56 AM,68.0,44.1,42,30.20,10.0,Calm,Calm,-,N/A,,Clear,0,2012-10-13 17:56:00
11:56 AM,70.0,42.1,36,30.19,10.0,WNW,3.5,-,N/A,,Clear,300,2012-10-13 18:56:00
12:56 PM,72.0,42.1,34,30.16,10.0,Calm,Calm,-,N/A,,Clear,0,2012-10-13 19:56:00
1:56 PM,75.9,42.1,30,30.13,10.0,East,3.5,-,N/A,,Clear,100,2012-10-13 20:56:00
2:56 PM,78.1,41.0,27,30.10,10.0,WNW,4.6,-,N/A,,Clear,290,2012-10-13 21:56:00
3:56 PM,78.1,41.0,27,30.09,10.0,Variable,3.5,-,N/A,,Clear,0,2012-10-13 22:56:00
4:56 PM,79.0,39.9,25,30.07,10.0,NNW,6.9,-,N/A,,Clear,330,2012-10-13 23:56:00
5:56 PM,77.0,41.0,28,30.08,10.0,NNW,5.8,-,N/A,,Clear,340,2012-10-14 00:56:00
6:56 PM,73.0,42.1,33,30.10,10.0,NNW,3.5,-,N/A,,Clear,340,2012-10-14 01:56:00
7:56 PM,70.0,42.1,36,29.45,10.0,WNW,5.8,-,N/A,,Clear,300,2012-10-14 02:56:00
8:56 PM,68.0,41.0,37,30.12,10.0,West,8.1,-,N/A,,Clear,260,2012-10-14 03:56:00
9:56 PM,66.9,39.9,37,30.13,10.0,WSW,11.5,-,N/A,,Clear,250,2012-10-14 04:56:00
10:56 PM,64.9,39.9,40,30.13,10.0,WNW,6.9,-,N/A,,Clear,300,2012-10-14 05:56:00
11:56 PM,63.0,39.0,41,30.12,10.0,Calm,Calm,-,N/A,,Clear,0,2012-10-14 06:56:00